Kahului, HI

1:43 AM HST on March 28, 2017 (GMT -1000)
Kahului

Weather History for PHOG - January, 2012

Change the Weather History Date:

Tuesday, January 31, 2012

  Actual Average Record
Temperature  
Mean Temperature 74 °F 72 °F  
Max Temperature 85 °F 81 °F 88 °F (1953)
Min Temperature 63 °F 63 °F 50 °F (1972)
Degree Days  
Heating Degree Days 0 0  
Month to date heating degree days 0 0  
Since 1 July heating degree days 0 0  
Cooling Degree Days 9 7  
Month to date cooling degree days 251 217  
Year to date cooling degree days 251 217  
Growing Degree Days 24 (Base 50)    
Moisture  
Dew Point 58 °F    
Average Humidity 58    
Maximum Humidity 73    
Minimum Humidity 43    
Precipitation  
Precipitation 0.00 in 0.09 in 3.11 in (1974)
Month to date precipitation 0.00 2.87  
Year to date precipitation 0.00 2.87  
Snow  
Snow 0.00 in - - ()
Month to date snowfall 0.0  
Since 1 July snowfall 0.0  
Snow Depth 0.00 in    
Sea Level Pressure  
Sea Level Pressure 30.01 in    
Wind  
Wind Speed 8 mph (East)    
Max Wind Speed 22 mph    
Max Gust Speed 30 mph    
Visibility 10 miles    
Events      
T = Trace of Precipitation, MM = Missing Value Source: NWS Daily Summary

Daily Weather History Graph

Daily Weather History Graph

Search for Another Location

Airport or City:

Trip Planner

Search our weather history database for the weather conditions in past years. The results will help you decide how hot, cold, wet, or windy it might be!

Date:

Astronomy

Jan. 31, 2012 Rise Set
Actual Time 7:02 AM HST 6:15 PM HST
Civil Twilight 6:39 AM HST 6:38 PM HST
Nautical Twilight 6:13 AM HST 7:05 PM HST
Astronomical Twilight 5:46 AM HST 7:31 PM HST
Moon 12:19 PM HST (1/31) 12:57 AM HST (1/31)
Length of Visible Light 11h 59m
Length of Day
11h 12m
First Quarter, 57% of the Moon is Illuminated
Jan 31
First Quarter
Feb 7
Full
Feb 14
Last Quarter
Feb 21
New
Feb 29
First Quarter

Hourly Weather History & Observations

Time (HST) Temp. Heat Index Dew Point Humidity Pressure Visibility Wind Dir Wind Speed Gust Speed Precip Events Conditions
12:54 AM 70.0 °F - 61.0 °F 73% 30.05 in 10.0 mi NE 10.4 mph - N/A   Scattered Clouds
1:54 AM 71.1 °F - 57.9 °F 63% 30.03 in 10.0 mi East 10.4 mph - N/A   Partly Cloudy
2:54 AM 66.9 °F - 57.0 °F 70% 30.01 in 10.0 mi East 4.6 mph - N/A   Clear
3:54 AM 64.0 °F - 55.0 °F 73% 30.01 in 10.0 mi Calm Calm - N/A   Partly Cloudy
4:54 AM 70.0 °F - 59.0 °F 68% 30.01 in 10.0 mi East 10.4 mph 24.2 mph N/A   Overcast
5:54 AM 72.0 °F - 55.9 °F 57% 30.01 in 10.0 mi East 11.5 mph - N/A   Mostly Cloudy
6:54 AM 71.1 °F - 57.0 °F 61% 30.03 in 10.0 mi East 5.8 mph - N/A   Scattered Clouds
7:54 AM 72.0 °F - 59.0 °F 64% 30.04 in 10.0 mi NE 10.4 mph - N/A   Partly Cloudy
8:54 AM 73.9 °F - 57.0 °F 55% 30.05 in 10.0 mi East 9.2 mph - N/A   Partly Cloudy
9:54 AM 78.1 °F - 59.0 °F 52% 30.05 in 10.0 mi East 16.1 mph 24.2 mph N/A   Partly Cloudy
10:54 AM 81.0 °F 81.1 °F 57.9 °F 45% 30.03 in 10.0 mi ESE 10.4 mph 20.7 mph N/A   Partly Cloudy
11:54 AM 80.1 °F 80.6 °F 57.9 °F 47% 30.01 in 10.0 mi ENE 11.5 mph 20.7 mph N/A   Partly Cloudy
12:54 PM 82.0 °F 81.7 °F 57.0 °F 42% 29.98 in 10.0 mi ENE 12.7 mph 19.6 mph N/A   Partly Cloudy
1:54 PM 84.0 °F 83.8 °F 59.0 °F 43% 29.95 in 10.0 mi ENE 10.4 mph 20.7 mph N/A   Scattered Clouds
2:54 PM 80.1 °F 80.9 °F 60.1 °F 50% 29.94 in 10.0 mi NNE 16.1 mph 20.7 mph N/A   Scattered Clouds
3:54 PM 80.1 °F 80.6 °F 57.9 °F 47% 29.94 in 10.0 mi NE 8.1 mph - N/A   Partly Cloudy
4:54 PM 78.1 °F - 59.0 °F 52% 29.95 in 10.0 mi East 4.6 mph - N/A   Scattered Clouds
5:54 PM 75.9 °F - 59.0 °F 56% 29.97 in 10.0 mi ENE 4.6 mph - N/A   Scattered Clouds
6:54 PM 73.9 °F - 59.0 °F 59% 29.98 in 10.0 mi Calm Calm - N/A   Scattered Clouds
7:54 PM 73.0 °F - 59.0 °F 61% 30.01 in 10.0 mi Calm Calm - N/A   Scattered Clouds
8:54 PM 70.0 °F - 59.0 °F 68% 30.04 in 10.0 mi SSE 4.6 mph - N/A   Mostly Cloudy
9:54 PM 71.1 °F - 60.1 °F 68% 30.04 in 10.0 mi ENE 5.8 mph - N/A   Overcast
10:54 PM 69.1 °F - 57.0 °F 65% 30.04 in 10.0 mi SE 4.6 mph - N/A   Partly Cloudy
11:54 PM 70.0 °F - 57.0 °F 63% 30.03 in 10.0 mi SSE 6.9 mph - N/A   Mostly Cloudy